Location: San Francisco
(37.7750°N, 122.4180°W)
Time: 13:39:59
(UTC-07:00)

Daily predictions for brighter satellites

Satellite Brightness Start Highest point End
(mag) Time Altitude Azimuth Time Altitude Azimuth Time Altitude Azimuth
USA 81 4.1 20:46:33 10° S 20:51:44 63° E 20:56:58 10° N
Cosmos 1437 2.7 20:49:05 10° S 20:52:16 82° E 20:55:31 10° N
Cosmos 1709 Rocket 4.3 20:47:14 10° N 20:53:29 75° W 20:59:36 10° S
Cosmos 1680 Rocket 3.6 20:50:11 10° S 20:55:18 59° ESE 21:00:26 10° NNE
USA 186 1.9 20:56:02 10° S 20:59:14 77° W 21:02:22 10° NNW
Cosmos 1536 Rocket 3.6 20:56:12 10° S 21:00:31 87° W 21:04:52 10° N
PSLV R/B 3.8 20:58:42 10° WNW 21:01:45 50° N 21:04:48 10° E
DNEPR-1 R/B 4.1 20:58:43 10° NNW 21:02:51 47° NE 21:07:16 10° SE
Envisat 3.1 20:59:39 10° SSE 21:04:41 68° ENE 21:09:44 10° N
Helios 1B rocket 2.4 21:01:14 10° NNE 21:05:21 63° ESE 21:09:26 10° S
Cosmos 1656 Rocket 3.6 21:00:01 10° NNW 21:05:30 84° ENE 21:11:01 10° SSE
Meteor 2-4 Rocket 3.9 21:04:51 10° S 21:10:16 53° E 21:15:55 10° NNE
COSMOS 2455 3.8 21:05:38 10° NW 21:11:20 46° WSW 21:16:59 10° S
Cosmos 405 4.2 21:09:02 10° NNE 21:12:05 26° ENE 21:14:30 14° SE
Cosmos 192 4.4 21:08:47 10° S 21:13:36 60° ESE 21:18:26 10° NNE
Cosmos 1025 Rocket 3.6 21:13:27 10° SSE 21:17:20 36° E 21:21:15 10° NNE
GENESIS II 4.3 21:14:44 10° NNW 21:18:40 64° ENE 21:21:45 15° SE
Spot 1 4.1 21:18:04 10° SSE 21:22:37 89° WSW 21:26:56 10° NNW
Cosmos 405 Rocket 3.4 21:21:37 10° SSW 21:25:18 57° W 21:29:05 10° N
Cosmos 1943 Rocket 4.1 21:23:19 10° NW 21:27:49 25° WSW 21:32:15 10° SSW
Cosmos 374 Rocket 4.5 21:24:16 10° NW 21:28:00 67° WSW 21:31:21 15° SSE
Tiangong 2 2.2 21:25:42 10° W 21:28:46 45° NNW 21:31:50 10° ENE
Okean 2 3.8 21:30:06 14° SSE 21:33:14 41° E 21:37:04 10° NNE
Cosmos 1441 Rocket 3.1 21:30:13 10° S 21:33:57 89° E 21:37:42 10° N
Aureole 1 Rocket 3.0 21:30:58 10° SSW 21:34:16 53° WNW 21:37:13 10° N
Cosmos 2074 Rocket 4.1 21:28:58 10° N 21:35:15 82° W 21:41:31 10° S
Cosmos 2184 Rocket 4.1 21:32:20 10° N 21:38:41 81° W 21:44:57 10° S
Cosmos 1610 Rocket 4.5 21:33:51 10° N 21:40:08 73° E 21:45:36 13° SSE
Cosmos 1371 Rocket 4.3 21:35:29 10° N 21:40:42 54° ENE 21:44:07 21° SE
Resurs 01 Rocket 4.2 21:38:57 10° SW 21:42:03 18° W 21:45:09 10° NW
Meteor 1-29 4.0 21:39:41 10° N 21:42:56 46° WNW 21:46:10 10° SSW
ARGOS 3.9 21:40:03 19° SE 21:43:18 37° ENE 21:48:16 10° N
ERS-1 Rocket 3.0 21:41:27 18° SSE 21:45:12 68° ENE 21:50:11 10° N
Meteor 1-23 Rocket 4.2 21:42:16 10° S 21:47:50 88° E 21:53:27 10° N
Terra 3.9 21:46:49 10° E 21:48:32 12° ENE 21:50:22 10° NE
SPOT 5 3.4 21:48:43 24° ESE 21:50:36 35° ENE 21:54:34 10° N
NOAA 11 4.3 21:47:14 20° SSE 21:50:55 61° ENE 21:56:17 10° N
H-2A R/B 4.3 21:52:19 11° E 21:53:41 12° ENE 21:55:28 10° NE
CZ-4B DEB 4.4 21:53:09 11° SSW 21:55:34 28° W 21:58:13 10° NW
ASTRO E2 4.4 21:56:40 10° WSW 21:59:22 18° SSW 21:59:46 17° S
MetOp-B 4.1 21:59:38 24° SSE 22:02:52 72° ENE 22:08:13 10° N
ISS -1.0 22:01:42 10° W 22:04:19 21° NNW 22:06:55 10° NNE
CENTAUR R/B 4.0 21:57:20 10° NW 22:04:51 43° WSW 22:12:05 12° S
Cosmos 2082 Rocket 2.5 22:05:18 24° SSE 22:08:17 44° ESE 22:13:38 10° NE
Meteor 1-15 Rocket 4.2 22:03:09 10° N 22:08:45 85° W 22:12:20 23° S
Cosmos 2278 4.0 22:05:07 10° NNW 22:10:41 52° ENE 22:13:11 31° SE
SL-24 DEB 4.2 22:14:21 37° SSE 22:16:02 64° E 22:20:37 10° N
Meteor 2-19 Rocket 4.4 22:10:29 10° N 22:16:39 82° E 22:20:09 27° S
YAOGAN 6 4.3 22:15:27 15° SSW 22:17:40 27° W 22:20:42 10° NW
ASTEX 1 4.3 22:14:07 12° SSW 22:18:24 44° W 22:23:05 10° NNW
MOS 1-B Rocket 4.0 22:16:58 25° S 22:20:29 80° WSW 22:26:53 10° NNW
SL-8 Rocket 4.3 22:14:31 10° N 22:20:37 51° E 22:23:07 33° SE
OAO 2 Rocket 3.4 22:16:56 10° W 22:21:46 55° S 22:23:02 42° SE
Cosmos 2228 3.2 22:18:17 10° N 22:22:30 52° E 22:23:12 46° ESE
H-2A R/B 2.2 22:21:04 37° ESE 22:22:38 52° ENE 22:27:30 10° N
Cosmos 2154 Rocket 4.3 22:16:30 10° NNW 22:22:49 68° W 22:27:20 20° S
Meteor 1-4 Rocket 3.9 22:20:24 10° NNE 22:23:05 26° ENE 22:23:05 26° ENE
Cosmos 1624 Rocket 4.1 22:18:35 10° NNW 22:23:51 73° WSW 22:26:17 33° S
Cosmos 921 Rocket 3.0 22:20:37 10° NNW 22:25:06 75° ENE 22:26:11 50° SE
SL-08 RB Rocket 3.5 22:28:40 48° SSE 22:29:55 83° ENE 22:34:25 10° N
Cosmos 2369 3.7 22:24:50 10° NNW 22:30:35 76° ENE 22:32:38 41° SE
Cosmos 1697 Rocket 3.5 22:25:47 10° N 22:30:59 37° ENE 22:32:41 30° E
Cosmos 1892 Rocket 3.9 22:29:38 26° SSW 22:32:02 64° W 22:36:26 10° N
Cosmos 1437 Rocket 3.8 22:31:16 10° NNW 22:34:54 40° W 22:36:13 30° SW
Cosmos 1602 Rocket 4.0 22:38:10 43° E 22:38:10 43° E 22:42:04 10° NNE
Cosmos 1656 3.8 22:32:37 10° NNW 22:38:02 61° ENE 22:39:30 44° ESE
PSLV R/B 4.5 22:35:48 10° W 22:37:45 32° W 22:37:45 32° W
Cosmos 2056 Rocket 4.0 22:38:08 10° NNW 22:43:07 50° WSW 22:44:59 33° SSW
Cosmos 1833 Rocket 2.6 22:42:12 28° SSW 22:45:16 86° ESE 22:50:56 10° NNE
DMSP B5D2-2 4.0 22:41:05 10° NNE 22:46:21 67° ESE 22:47:29 52° SSE
deb Chang Zheng 4 4.3 22:45:40 10° NNE 22:49:00 39° ENE 22:49:00 39° ENE
Cosmos 1959 Rocket 4.5 22:43:30 10° N 22:49:52 74° E 22:51:51 46° SSE
Cosmos 1269 Rocket 4.3 22:51:09 46° E 22:51:09 46° E 22:56:06 10° NNE
COSMOS 2487 3.9 22:51:23 27° WSW 22:52:36 35° WNW 22:55:55 10° N
Timation 2 Rocket 3.9 22:53:45 43° S 22:55:49 67° ESE 23:01:57 10° NNE
Cosmos 1066 Rocket 4.3 22:58:02 37° SSW 23:00:13 71° W 23:05:50 10° N
SL-08 R/B 4.3 22:54:48 10° N 23:00:56 79° E 23:02:26 53° SSE
Cosmos 1420 Rocket 4.1 22:55:58 10° N 23:01:09 58° ENE 23:01:42 55° E
Cosmos 1048 Rocket 3.9 23:02:53 62° ESE 23:02:53 62° ESE 23:07:57 10° NNE
CARTOSAT-1 3.6 23:04:29 70° NE 23:04:29 70° NE 23:08:36 10° N
Tiangong 2 3.0 23:03:00 10° WNW 23:05:23 29° NNW 23:05:23 29° NNW
Cosmos 2218 Rocket 3.9 23:00:58 10° N 23:07:09 81° W 23:08:54 50° S
Meteor 2-14 Rocket 4.4 23:02:51 10° N 23:08:55 70° E 23:09:58 58° SE
Cosmos 2058 Rocket 4.3 23:06:33 10° NNW 23:10:33 34° W 23:11:26 31° WSW
Landsat 7 3.8 23:10:13 64° SW 23:10:38 68° WSW 23:15:23 10° NNW
Cosmos 1809 Rocket 4.4 23:05:02 10° N 23:11:08 81° W 23:12:37 54° S
Cosmos 1766 4.1 23:07:32 10° N 23:10:27 45° NNE 23:10:27 45° NNE
SPOT 1/Viking Rocket 4.3 23:12:56 36° SW 23:14:11 43° W 23:19:05 10° NNW
Cosmos 1452 Rocket 3.6 23:09:56 10° NNW 23:15:09 67° WSW 23:15:45 61° SW
Lacrosse 5 rocket 4.3 23:15:41 10° N 23:17:36 12° NNE 23:19:30 10° NE
Cosmos 1980 Rocket 2.4 23:13:49 10° NNW 23:19:23 56° ENE 23:19:54 53° E
Meteor 1-21 4.1 23:21:30 71° S 23:22:08 85° E 23:27:55 10° N
Terra 1.9 23:25:42 69° W 23:25:42 69° W 23:30:25 10° NNW
H-2A R/B 2.5 23:29:27 62° WNW 23:29:27 62° WNW 23:33:37 10° NNW
Cosmos 2322 Rocket 3.7 23:25:07 10° N 23:29:45 25° ENE 23:30:47 24° ENE
Meteor 2-16 Rocket 4.3 23:24:17 10° N 23:30:28 89° W 23:31:17 69° S
IGS 5A 4.2 23:31:12 51° WNW 23:31:12 51° WNW 23:34:38 10° NNW
Nadezhda 3 Rocket 3.9 23:31:32 67° SE 23:32:17 75° E 23:38:38 10° N
Cosmos 1812 Rocket 4.0 23:28:58 10° NNW 23:32:52 61° NW 23:32:52 61° NW
SeaSat 1 4.4 23:36:46 18° ENE 23:37:40 19° NE 23:41:05 10° N
USA 267 3.2 23:34:04 10° NE 23:40:17 60° ESE 23:40:17 60° ESE
SME Rocket 4.4 23:41:17 38° ENE 23:41:17 38° ENE 23:44:58 10° N
ATLAS CENTAUR R/B 3.7 23:41:36 10° N 23:43:11 15° NE 23:43:11 15° NE
Spot 4 4.0 23:45:10 69° NNW 23:45:10 69° NNW 23:49:25 10° NNW
Lacrosse 5 3.9 23:48:51 18° ENE 23:48:51 18° ENE 23:50:14 10° NE
Cosmos 1821 Rocket 4.1 23:44:09 10° N 23:50:23 62° E 23:50:40 62° E
Cosmos 2082 Rocket 4.1 23:47:54 10° WSW 23:52:31 25° WNW 23:57:09 10° N
CZ-2C R/B 3.8 23:49:28 10° NNE 23:53:22 32° ENE 23:53:22 32° ENE
